This is the latest recevied weather packets stored in our database for station/object KD8TSA. If no packets are shown the sender has not sent any weather packets the latest 10 day(s).
| Time | Temp. | Humidity | Pressure | Rain* | Wind** | Luminosity | Snow |
|---|---|---|---|---|---|---|---|
| 1778246831 | 13.89° C | 64% | 1013.9 hPa | 0 mm | - | 461 W/m² | - |
| 1778246528 | 13.33° C | 66% | 1014.1 hPa | 0 mm | - | 109 W/m² | - |
| 1778246223 | 12.78° C | 65% | 1014 hPa | 0 mm | - | 348 W/m² | - |
| 1778245920 | 12.22° C | 68% | 1014 hPa | 0 mm | - | 363 W/m² | - |
| 1778245616 | 11.67° C | 67% | 1014.3 hPa | 0 mm | - | 134 W/m² | - |
| 1778245314 | 11.67° C | 67% | 1014 hPa | 0 mm | - | 165 W/m² | - |
| 1778245009 | 12.22° C | 65% | 1014.1 hPa | 0 mm | - | 132 W/m² | - |
| 1778244706 | 12.78° C | 66% | 1014.1 hPa | 0 mm | - | 152 W/m² | - |
| 1778244404 | 12.78° C | 65% | 1014 hPa | 0 mm | - | 176 W/m² | - |
| 1778244101 | 12.22° C | 67% | 1014.3 hPa | 0 mm | - | 232 W/m² | - |
| 1778243800 | 12.22° C | 69% | 1013.8 hPa | 0 mm | - | 144 W/m² | - |
| 1778243497 | 11.67° C | 69% | 1014 hPa | 0 mm | - | 292 W/m² | - |
| 1778243193 | 11.11° C | 70% | 1013.9 hPa | 0 mm | - | 108 W/m² | - |
| 1778242890 | 11.11° C | 71% | 1014.1 hPa | 0 mm | - | 188 W/m² | - |
| 1778242588 | 11.11° C | 71% | 1014 hPa | 0 mm | - | 138 W/m² | - |
| 1778242286 | 10.56° C | 72% | 1014 hPa | 0 mm | - | 115 W/m² | - |
| 1778241983 | 10° C | 73% | 1013.7 hPa | 0 mm | - | 188 W/m² | - |
| 1778241681 | 10° C | 73% | 1013.9 hPa | 0 mm | - | 118 W/m² | - |
| 1778241378 | 10° C | 73% | 1013.8 hPa | 0 mm | - | 113 W/m² | - |
| 1778241075 | 9.44° C | 74% | 1013.8 hPa | 0 mm | - | 87 W/m² | - |
| 1778240772 | 9.44° C | 73% | 1013.7 hPa | 0 mm | - | 88 W/m² | - |
| 1778240468 | 8.89° C | 73% | 1013.8 hPa | 0 mm | - | 65 W/m² | - |
| 1778240166 | 8.89° C | 74% | 1013.9 hPa | 0 mm | - | 67 W/m² | - |
| 1778239864 | 8.89° C | 74% | 1013.8 hPa | 0 mm | - | 49 W/m² | - |
| 1778239559 | 8.89° C | 75% | 1013.7 hPa | 0 mm | - | 41 W/m² | - |
* Rain latest hour (hover to see other rain measurements)
** Current wind speed in m/s (hover to see current wind gust speed)